KQ4KX Weather Reports


Display with metric or nautical units.
time (UTC)temp
F
wind
direction
speed
MPH
gust
MPH
rain 1hr
in
rain 24hr
in
rain mn
in
humidity
%
barometer
mb
20200331231631 80 246 8.0 21.0 0.00 0.00 0.00 74 1007.2
20200331231544 80 247 7.0 21.0 0.00 0.00 0.00 75 1007.1
20200331231014 80 246 8.0 21.0 0.00 0.00 0.00 74 1007.2
20200331230444 80 243 9.0 20.0 0.00 0.00 0.00 75 1007.1
20200331225914 81 240 8.0 20.0 0.00 0.00 0.00 74 1007.1
20200331225511 81 244 8.0 22.0 0.00 0.00 0.00 73 1007.2
20200331225414 81 239 7.0 18.0 0.00 0.00 0.00 73 1007.1
20200331224844 81 244 8.0 22.0 0.00 0.00 0.00 73 1007.2
20200331224314 81 242 8.0 22.0 0.00 0.00 0.00 72 1007.1
20200331223744 81 241 7.0 17.0 0.00 0.00 0.00 71 1007.1
20200331223244 82 243 7.0 17.0 0.00 0.00 0.00 70 1007.1
20200331222714 82 248 7.0 14.0 0.00 0.00 0.00 70 1007.1
20200331222215 82 242 8.0 32.0 0.00 0.00 0.00 70 1007.1
20200331221644 82 242 9.0 32.0 0.00 0.00 0.00 69 1007.0
20200331221114 82 248 9.0 24.0 0.00 0.00 0.00 69 1007.0
20200331220614 82 246 9.0 22.0 0.00 0.00 0.00 69 1007.0
20200331220044 82 243 8.0 22.0 0.00 0.00 0.00 69 1007.1
20200331215544 82 240 9.0 21.0 0.00 0.00 0.00 68 1007.1
20200331215409 83 240 9.0 21.0 0.00 0.00 0.00 67 1007.1
20200331215015 83 240 9.0 21.0 0.00 0.00 0.00 67 1007.1
20200331214514 83 244 8.0 21.0 0.00 0.00 0.00 66 1007.2
20200331213944 83 244 9.0 19.0 0.00 0.00 0.00 66 1007.2
20200331213444 84 242 10.0 23.0 0.00 0.00 0.00 64 1007.3
20200331213105 84 244 9.0 23.0 0.00 0.00 0.00 63 1007.3
20200331212914 84 244 9.0 23.0 0.00 0.00 0.00 63 1007.3
20200331212415 84 250 8.0 22.0 0.00 0.00 0.00 62 1007.3
20200331211914 85 248 9.0 22.0 0.00 0.00 0.00 61 1007.2
20200331211629 85 241 8.0 21.0 0.00 0.00 0.00 60 1007.2
20200331211345 85 241 8.0 21.0 0.00 0.00 0.00 60 1007.2
20200331210815 85 243 8.0 22.0 0.00 0.00 0.00 59 1007.2
20200331210737 85 239 9.0 22.0 0.00 0.00 0.00 58 1007.2
20200331210245 85 239 9.0 22.0 0.00 0.00 0.00 58 1007.2
20200331205715 86 238 10.0 20.0 0.00 0.00 0.00 57 1007.1
20200331205145 86 249 8.0 20.0 0.00 0.00 0.00 56 1007.1
20200331205001 86 243 8.0 18.0 0.00 0.00 0.00 57 1007.3
20200331204615 86 243 8.0 18.0 0.00 0.00 0.00 57 1007.3
20200331204115 86 242 7.0 18.0 0.00 0.00 0.00 57 1007.4
20200331203545 86 239 7.0 17.0 0.00 0.00 0.00 57 1007.2
20200331203045 86 243 7.0 16.0 0.00 0.00 0.00 57 1007.3
20200331202640 87 254 6.0 15.0 0.00 0.00 0.00 57 1007.3
20200331202515 87 254 6.0 15.0 0.00 0.00 0.00 57 1007.3
20200331201945 87 250 7.0 17.0 0.00 0.00 0.00 55 1007.3
20200331201415 87 248 7.0 17.0 0.00 0.00 0.00 57 1007.3
20200331200845 87 246 7.0 17.0 0.00 0.00 0.00 55 1007.5
20200331200616 87 245 8.0 20.0 0.00 0.00 0.00 55 1007.5
20200331200345 87 245 8.0 20.0 0.00 0.00 0.00 55 1007.5
20200331195815 87 246 8.0 21.0 0.00 0.00 0.00 55 1007.4
20200331195315 87 244 7.0 21.0 0.00 0.00 0.00 56 1007.5
20200331194815 88 241 8.0 17.0 0.00 0.00 0.00 55 1007.6
20200331194555 87 236 9.0 20.0 0.00 0.00 0.00 55 1007.7
20200331194245 87 236 9.0 20.0 0.00 0.00 0.00 55 1007.7
20200331194111 88 231 9.0 20.0 0.00 0.00 0.00 55 1007.7
20200331193745 88 231 9.0 20.0 0.00 0.00 0.00 55 1007.7
20200331193403 87 245 7.0 18.0 0.00 0.00 0.00 58 1008.2
20200331193215 87 237 7.0 16.0 0.00 0.00 0.00 55 1007.8
20200331192645 87 241 7.0 16.0 0.00 0.00 0.00 58 1008.0
20200331192145 87 237 8.0 18.0 0.00 0.00 0.00 58 1008.0
20200331191643 87 245 7.0 18.0 0.00 0.00 0.00 58 1008.1
20200331191545 87 245 7.0 18.0 0.00 0.00 0.00 58 1008.2
20200331191015 86 241 8.0 17.0 0.00 0.00 0.00 59 1008.3
20200331190445 86 237 8.0 17.0 0.00 0.00 0.00 58 1008.4
20200331185945 86 234 8.0 20.0 0.00 0.00 0.00 59 1008.4
20200331185415 87 237 7.0 20.0 0.00 0.00 0.00 57 1008.5
20200331185202 87 246 7.0 18.0 0.00 0.00 0.00 58 1008.6
20200331184845 87 246 7.0 18.0 0.00 0.00 0.00 58 1008.6
20200331184315 87 248 7.0 18.0 0.00 0.00 0.00 57 1008.8
20200331183745 88 245 7.0 17.0 0.00 0.00 0.00 56 1008.9
20200331183605 87 240 7.0 16.0 0.00 0.00 0.00 57 1009.0
20200331183245 87 240 7.0 16.0 0.00 0.00 0.00 57 1009.0
20200331182922 87 243 6.0 15.0 0.00 0.00 0.00 57 1009.1
20200331182715 87 244 7.0 16.0 0.00 0.00 0.00 56 1009.0
20200331182304 86 241 6.0 16.0 0.00 0.00 0.00 58 1009.3
20200331182215 87 243 6.0 15.0 0.00 0.00 0.00 57 1009.1
20200331182200 86 242 6.0 15.0 0.00 0.00 0.00 59 1009.6
20200331181645 86 241 6.0 16.0 0.00 0.00 0.00 58 1009.3
20200331181115 87 244 7.0 16.0 0.00 0.00 0.00 59 1009.5
20200331180545 86 242 6.0 15.0 0.00 0.00 0.00 59 1009.6
20200331180015 86 244 7.0 15.0 0.00 0.00 0.00 58 1009.7
20200331175515 86 241 7.0 14.0 0.00 0.00 0.00 59 1009.7
20200331174945 86 236 7.0 17.0 0.00 0.00 0.00 59 1009.8
20200331174415 87 235 6.0 16.0 0.00 0.00 0.00 59 1010.0
20200331173915 86 245 6.0 16.0 0.00 0.00 0.00 60 1010.1
20200331173415 86 246 5.0 14.0 0.00 0.00 0.00 59 1010.1
20200331172845 87 233 6.0 15.0 0.00 0.00 0.00 59 1010.3
20200331172315 87 239 5.0 15.0 0.00 0.00 0.00 59 1010.4
20200331171745 87 254 5.0 12.0 0.00 0.00 0.00 59 1010.5
20200331171245 87 248 5.0 16.0 0.00 0.00 0.00 59 1010.6
20200331170715 86 242 6.0 16.0 0.00 0.00 0.00 60 1010.7
20200331170215 85 242 5.0 13.0 0.00 0.00 0.00 62 1010.8
20200331165732 84 240 5.0 11.0 0.00 0.00 0.00 66 1011.5
20200331165645 84 248 4.0 10.0 0.00 0.00 0.00 65 1010.9
20200331165145 84 244 5.0 17.0 0.00 0.00 0.00 66 1011.0
20200331164615 83 234 5.0 17.0 0.00 0.00 0.00 66 1011.2
20200331164045 84 242 4.0 12.0 0.00 0.00 0.00 67 1011.3
20200331163515 83 250 5.0 13.0 0.00 0.00 0.00 65 1011.3
20200331163015 84 237 6.0 13.0 0.00 0.00 0.00 64 1011.4
20200331162515 84 232 6.0 12.0 0.00 0.00 0.00 66 1011.4
20200331161945 84 240 5.0 11.0 0.00 0.00 0.00 66 1011.5
20200331161415 83 248 3.0 11.0 0.00 0.00 0.00 67 1011.6
20200331160845 83 240 4.0 11.0 0.00 0.00 0.00 68 1011.7
20200331160345 82 238 4.0 11.0 0.00 0.00 0.00 68 1011.7
20200331155815 83 240 5.0 12.0 0.00 0.00 0.00 68 1011.8
20200331155315 83 237 6.0 12.0 0.00 0.00 0.00 67 1012.0
20200331154745 84 239 4.0 10.0 0.00 0.00 0.00 67 1011.9
20200331154215 83 241 4.0 10.0 0.00 0.00 0.00 69 1012.0
20200331153715 82 233 5.0 12.0 0.00 0.00 0.00 71 1012.0
20200331153145 81 232 5.0 12.0 0.00 0.00 0.00 71 1012.1
20200331152615 81 232 5.0 12.0 0.00 0.00 0.00 70 1012.2
20200331152135 80 225 6.0 15.0 0.00 0.00 0.00 76 1012.1
20200331152115 81 228 5.0 14.0 0.00 0.00 0.00 71 1012.2
20200331151615 81 236 5.0 14.0 0.00 0.00 0.00 71 1012.2
20200331151115 81 236 6.0 15.0 0.00 0.00 0.00 72 1012.2
20200331150545 80 226 6.0 15.0 0.00 0.00 0.00 73 1012.2
20200331150045 80 228 5.0 12.0 0.00 0.00 0.00 73 1012.2
20200331145515 80 225 6.0 15.0 0.00 0.00 0.00 76 1012.1
20200331144945 79 224 7.0 15.0 0.00 0.00 0.00 75 1012.1
20200331144447 78 208 5.0 14.0 0.00 0.00 0.00 79 1011.9
20200331144415 80 221 6.0 13.0 0.00 0.00 0.00 75 1012.0
20200331143845 80 215 5.0 13.0 0.00 0.00 0.00 77 1012.0
20200331143345 79 211 6.0 13.0 0.00 0.00 0.00 78 1012.0
20200331142815 78 208 5.0 14.0 0.00 0.00 0.00 79 1011.9
20200331142315 78 217 5.0 14.0 0.00 0.00 0.00 81 1011.9
20200331141745 77 212 5.0 13.0 0.00 0.00 0.00 81 1012.0
20200331141245 77 202 4.0 11.0 0.00 0.00 0.00 82 1012.1
20200331140715 77 202 4.0 11.0 0.00 0.00 0.00 83 1012.1
20200331140215 76 215 5.0 11.0 0.00 0.00 0.00 84 1012.2
20200331135645 76 218 6.0 11.0 0.00 0.00 0.00 84 1012.3
20200331135145 76 212 5.0 10.0 0.00 0.00 0.00 84 1012.2
20200331134615 76 216 4.0 10.0 0.00 0.00 0.00 86 1012.4
20200331134045 75 218 4.0 9.0 0.00 0.00 0.00 86 1012.4
20200331133515 75 217 4.0 11.0 0.00 0.00 0.00 87 1012.4
20200331133015 74 218 4.0 11.0 0.00 0.00 0.00 87 1012.3
20200331132445 74 219 4.0 8.0 0.00 0.00 0.00 88 1012.6
20200331131945 74 214 4.0 8.0 0.00 0.00 0.00 88 1012.6
20200331131415 73 216 4.0 9.0 0.00 0.00 0.00 88 1012.5
20200331130845 73 214 3.0 9.0 0.00 0.00 0.00 88 1012.5
20200331130315 72 217 2.0 5.0 0.00 0.00 0.00 88 1012.6
20200331125815 72 211 2.0 5.0 0.00 0.00 0.00 88 1012.6
20200331125245 72 211 3.0 6.0 0.00 0.00 0.00 89 1012.6
20200331124715 72 212 3.0 7.0 0.00 0.00 0.00 88 1012.6
20200331124145 72 211 2.0 7.0 0.00 0.00 0.00 88 1012.6
20200331123912 71 216 3.0 8.0 0.00 0.00 0.00 89 1012.6
20200331123615 71 216 3.0 8.0 0.00 0.00 0.00 89 1012.6
20200331123115 71 213 3.0 8.0 0.00 0.00 0.00 89 1012.7
20200331122545 71 202 2.0 8.0 0.00 0.00 0.00 88 1012.7
20200331122045 71 195 1.0 6.0 0.00 0.00 0.00 89 1012.8
20200331121515 70 204 2.0 5.0 0.00 0.00 0.00 89 1012.7
20200331120945 70 214 2.0 5.0 0.00 0.00 0.00 88 1012.8
20200331120415 70 221 2.0 5.0 0.00 0.00 0.00 88 1012.9
20200331115915 70 221 2.0 5.0 0.00 0.00 0.00 88 1012.9
20200331115345 70 218 2.0 4.0 0.00 0.00 0.00 88 1012.9
20200331114845 70 209 2.0 5.0 0.00 0.00 0.00 88 1013.0
20200331114345 70 215 2.0 5.0 0.00 0.00 0.00 88 1012.8
20200331113815 70 225 2.0 5.0 0.00 0.00 0.00 88 1012.7
20200331113315 70 227 2.0 6.0 0.00 0.00 0.00 88 1012.7
20200331112745 70 227 2.0 6.0 0.00 0.00 0.00 88 1012.8
20200331112245 70 218 2.0 5.0 0.00 0.00 0.00 89 1012.7
20200331111715 70 212 2.0 5.0 0.00 0.00 0.00 89 1012.6
20200331111145 70 220 2.0 5.0 0.00 0.00 0.00 89 1012.7
20200331110645 70 221 2.0 5.0 0.00 0.00 0.00 89 1012.7
20200331110115 70 223 1.0 3.0 0.00 0.00 0.00 88 1012.6
20200331105615 70 222 1.0 3.0 0.00 0.00 0.00 88 1012.6
20200331105045 70 221 1.0 3.0 0.00 0.00 0.00 88 1012.5
20200331104515 70 221 2.0 3.0 0.00 0.00 0.00 88 1012.4
20200331104015 70 221 1.0 3.0 0.00 0.00 0.00 88 1012.3
20200331103445 70 221 1.0 3.0 0.00 0.00 0.00 88 1012.3
20200331102945 70 221 1.0 4.0 0.00 0.00 0.00 88 1012.3
20200331102445 70 221 1.0 4.0 0.00 0.00 0.00 88 1012.2
20200331101915 70 221 1.0 4.0 0.00 0.00 0.00 88 1012.3
20200331101415 71 219 1.0 3.0 0.00 0.00 0.00 87 1012.4
20200331100845 71 219 2.0 5.0 0.00 0.00 0.00 87 1012.3
20200331100345 71 223 3.0 7.0 0.00 0.00 0.00 87 1012.4
20200331095815 71 225 3.0 7.0 0.00 0.00 0.00 87 1012.4
20200331095315 71 226 3.0 6.0 0.00 0.00 0.00 87 1012.4
20200331094745 71 225 3.0 6.0 0.00 0.00 0.00 87 1012.2
20200331094215 71 226 2.0 5.0 0.00 0.00 0.00 87 1012.2
20200331093715 71 227 2.0 4.0 0.00 0.00 0.00 88 1012.4
20200331093145 70 234 2.0 4.0 0.00 0.00 0.00 88 1012.2
20200331092645 70 242 2.0 4.0 0.00 0.00 0.00 88 1012.2
20200331092404 70 270 1.0 3.0 0.00 0.00 0.00 88 1012.2
20200331091545 70 270 1.0 3.0 0.00 0.00 0.00 88 1012.2
20200331091045 70 281 1.0 3.0 0.00 0.00 0.00 88 1012.2
20200331090515 70 0 0.0 0.0 0.00 0.00 0.00 87 1012.1
20200331090015 70 0 0.0 0.0 0.00 0.00 0.00 87 1012.1
20200331085445 70 0 0.0 0.0 0.00 0.00 0.00 87 1012.2
20200331084945 70 0 0.0 0.0 0.00 0.00 0.00 87 1012.2
20200331084415 71 0 0.0 0.0 0.00 0.00 0.00 87 1012.2
20200331083915 71 0 0.0 0.0 0.00 0.00 0.00 87 1012.4
20200331083415 71 0 0.0 0.0 0.00 0.00 0.00 87 1012.4
20200331082915 71 0 0.0 0.0 0.00 0.00 0.00 87 1012.5
20200331082345 71 0 0.0 0.0 0.00 0.00 0.00 87 1012.5
20200331081815 71 0 0.0 0.0 0.00 0.00 0.00 87 1012.5
20200331081245 71 0 0.0 0.0 0.00 0.00 0.00 87 1012.7
20200331080715 71 0 0.0 0.0 0.00 0.00 0.00 87 1013.0
20200331080215 71 0 0.0 0.0 0.00 0.00 0.00 87 1012.9
20200331075959 71 0 0.0 0.0 0.00 0.00 0.00 87 1012.9
20200331075645 71 0 0.0 0.0 0.00 0.00 0.00 87 1012.9
20200331075145 71 0 0.0 0.0 0.00 0.00 0.00 87 1012.9
20200331074645 71 0 0.0 0.0 0.00 0.00 0.00 86 1013.0
20200331074631 71 0 0.0 0.0 0.00 0.00 0.00 86 1013.1
20200331074115 71 0 0.0 0.0 0.00 0.00 0.00 86 1013.1
20200331073545 71 0 0.0 0.0 0.00 0.00 0.00 86 1013.1
20200331073015 71 0 0.0 0.0 0.00 0.00 0.00 86 1013.3
20200331072445 71 0 0.0 0.0 0.00 0.00 0.00 86 1013.5
20200331071916 71 0 0.0 0.0 0.00 0.00 0.00 86 1013.6
20200331071345 71 0 0.0 0.0 0.00 0.00 0.00 85 1013.5
20200331070815 71 0 0.0 0.0 0.00 0.00 0.00 85 1013.5
20200331070315 71 0 0.0 0.0 0.00 0.00 0.00 85 1013.4
20200331065746 71 0 0.0 0.0 0.00 0.00 0.00 85 1013.5
20200331065245 71 0 0.0 0.0 0.00 0.00 0.00 85 1013.7
20200331064746 71 0 0.0 0.0 0.00 0.00 0.00 86 1013.7
20200331064215 71 0 0.0 0.0 0.00 0.00 0.00 86 1013.7
20200331063837 71 0 0.0 0.0 0.00 0.00 0.00 86 1013.7
20200331063645 71 0 0.0 0.0 0.00 0.00 0.00 86 1013.7
20200331063633 71 0 0.0 0.0 0.00 0.00 0.00 86 1013.9
20200331063145 71 0 0.0 0.0 0.00 0.00 0.00 86 1013.9
20200331062616 71 0 0.0 0.0 0.00 0.00 0.00 85 1014.0
20200331062115 71 0 0.0 0.0 0.00 0.00 0.00 85 1014.1
20200331061545 71 0 0.0 0.0 0.00 0.00 0.00 85 1014.1
20200331061045 71 0 0.0 0.0 0.00 0.00 0.00 84 1014.2
20200331060545 72 0 0.0 0.0 0.00 0.00 0.00 85 1014.3
20200331060307 72 0 0.0 0.0 0.00 0.00 0.00 84 1014.1
20200331060045 72 0 0.0 0.0 0.00 0.00 0.00 84 1014.2
20200331055545 72 0 0.0 0.0 0.00 0.00 0.00 84 1014.1
20200331055016 72 0 0.0 0.0 0.00 0.00 0.00 84 1014.1
20200331054920 72 0 0.0 0.0 0.00 0.00 0.00 84 1014.1
20200331054515 72 0 0.0 0.0 0.00 0.00 0.00 83 1014.1
20200331053946 72 0 0.0 0.0 0.00 0.00 0.00 84 1014.1
20200331053416 72 0 0.0 0.0 0.00 0.00 0.00 84 1014.1
20200331052845 72 0 0.0 0.0 0.00 0.00 0.00 82 1014.1
20200331052346 72 0 0.0 0.0 0.00 0.00 0.00 82 1014.1
20200331051815 73 0 0.0 0.0 0.00 0.00 0.00 82 1014.3
20200331051246 73 0 0.0 0.0 0.00 0.00 0.00 81 1014.6
20200331050746 73 0 0.0 0.0 0.00 0.00 0.00 81 1014.7
20200331050216 73 0 0.0 0.0 0.00 0.00 0.00 81 1014.8
20200331045716 73 0 0.0 0.0 0.00 0.00 0.00 81 1015.0
20200331045146 73 0 0.0 0.0 0.00 0.00 0.00 81 1015.1
20200331044646 74 0 0.0 0.0 0.00 0.00 0.00 81 1015.2
20200331044116 74 0 0.0 0.0 0.00 0.00 0.00 81 1015.3
20200331043616 74 0 0.0 0.0 0.00 0.00 0.00 81 1015.5
20200331043046 74 0 0.0 0.0 0.00 0.00 0.00 81 1015.5
20200331042516 74 0 0.0 0.0 0.00 0.00 0.00 80 1015.4
20200331042016 74 0 0.0 0.0 0.00 0.00 0.00 79 1015.3
20200331041446 74 0 0.0 0.0 0.00 0.00 0.00 80 1015.5
20200331040946 74 0 0.0 0.0 0.00 0.00 0.00 80 1015.6
20200331040446 74 0 0.0 0.0 0.00 0.00 0.00 80 1015.7
20200331035916 75 0 0.0 0.0 0.00 0.00 0.00 80 1015.6
20200331035346 75 0 0.0 0.0 0.00 0.00 0.00 80 1016.0
20200331034816 75 0 0.0 0.0 0.00 0.00 0.00 79 1015.9
20200331034246 75 0 0.0 0.0 0.00 0.00 0.00 79 1015.8
20200331033716 75 0 0.0 0.0 0.00 0.00 0.00 78 1015.8
20200331033216 75 0 0.0 0.0 0.00 0.00 0.00 78 1015.8
20200331032646 76 316 0.0 1.0 0.00 0.00 0.00 78 1015.7
20200331032116 76 316 0.0 2.0 0.00 0.00 0.00 78 1015.5
20200331031616 76 316 0.0 2.0 0.00 0.00 0.00 77 1015.5
20200331031116 76 316 0.0 1.0 0.00 0.00 0.00 77 1015.5
20200331030546 76 317 0.0 2.0 0.00 0.00 0.00 77 1015.6
20200331030049 76 316 0.0 2.0 0.00 0.00 0.00 77 1015.6
20200331025546 76 0 0.0 0.0 0.00 0.00 0.00 77 1015.6
20200331025046 76 0 0.0 0.0 0.00 0.00 0.00 77 1015.6
20200331024516 76 0 0.0 0.0 0.00 0.00 0.00 77 1015.7
20200331023946 76 317 0.0 1.0 0.00 0.00 0.00 77 1015.8
20200331023446 77 317 0.0 1.0 0.00 0.00 0.00 76 1015.9
20200331022916 77 316 0.0 2.0 0.00 0.00 0.00 76 1016.1
20200331022346 77 317 1.0 3.0 0.00 0.00 0.00 76 1015.9
20200331021846 77 317 1.0 3.0 0.00 0.00 0.00 76 1016.0
20200331021316 77 317 1.0 2.0 0.00 0.00 0.00 75 1016.1
20200331021023 79 321 2.0 4.0 0.00 0.00 0.00 73 1015.8
20200331020746 77 317 1.0 3.0 0.00 0.00 0.00 75 1015.9
20200331020246 77 313 1.0 3.0 0.00 0.00 0.00 75 1016.0
20200331015746 78 313 1.0 3.0 0.00 0.00 0.00 75 1015.9
20200331015216 78 322 1.0 3.0 0.00 0.00 0.00 74 1015.9
20200331014646 78 334 1.0 3.0 0.00 0.00 0.00 74 1015.9
20200331014116 78 334 2.0 4.0 0.00 0.00 0.00 74 1015.8
20200331013546 78 327 2.0 4.0 0.00 0.00 0.00 73 1015.8
20200331013016 79 321 2.0 4.0 0.00 0.00 0.00 73 1015.8
20200331012446 79 316 2.0 4.0 0.00 0.00 0.00 72 1015.7
20200331011946 79 315 2.0 4.0 0.00 0.00 0.00 72 1015.7
20200331011416 79 320 2.0 4.0 0.00 0.00 0.00 72 1015.7
20200331010916 80 324 2.0 5.0 0.00 0.00 0.00 71 1015.8
20200331010346 80 307 2.0 5.0 0.00 0.00 0.00 71 1015.9
20200331005846 80 297 2.0 5.0 0.00 0.00 0.00 70 1015.8
20200331005347 80 297 2.0 5.0 0.00 0.00 0.00 70 1015.7
20200331004846 81 304 2.0 4.0 0.00 0.00 0.00 70 1015.7
20200331004346 81 308 3.0 5.0 0.00 0.00 0.00 69 1015.6
20200331003846 81 309 2.0 5.0 0.00 0.00 0.00 68 1015.6
20200331003316 82 294 2.0 5.0 0.00 0.00 0.00 67 1015.6
20200331002816 82 271 2.0 5.0 0.00 0.00 0.00 67 1015.5
20200331002247 83 287 1.0 4.0 0.00 0.00 0.00 66 1015.3
20200331001716 83 293 1.0 5.0 0.00 0.00 0.00 65 1015.3
20200331001150 84 244 1.0 5.0 0.00 0.00 0.00 60 1015.3
20200331000617 85 217 1.0 2.0 0.00 0.00 0.00 61 1015.0
20200331000110 85 217 1.0 3.0 0.00 0.00 0.00 60 1015.0
20200330235546 85 217 1.0 3.0 0.00 0.00 0.00 58 1015.1
20200330235046 86 221 2.0 4.0 0.00 0.00 0.00 58 1015.2
20200330234516 86 224 1.0 4.0 0.00 0.00 0.00 56 1015.3
20200330234016 86 217 1.0 3.0 0.00 0.00 0.00 55 1015.3
20200330233446 86 218 2.0 5.0 0.00 0.00 0.00 55 1015.1
20200330232916 86 221 2.0 5.0 0.00 0.00 0.00 55 1015.0
20200330232416 86 222 2.0 4.0 0.00 0.00 0.00 54 1014.9